Orbital Elements at Epoch 2459200.5 (2020-Dec-17.0) TDB
Reference: JPL 20 (heliocentric ecliptic J2000)
Element | Value | Uncertainty (1-sigma) | Units |
e | .01930265166822131 | 5.2506e-08 | |
a | 2.765146129981302 | 1.838e-08 | au |
q | 2.711771477422543 | 1.4576e-07 | au |
i | 3.687720674294542 | 5.7215e-06 | deg |
node | 6.016857906895579 | 6.3363e-05 | deg |
peri | 224.1235164129519 | 0.00014048 | deg |
M | 34.71636354702644 | 0.00012387 | deg |
tp | 2459038.540180195697 (2020-Jul-08.04018020) | 0.00057841 | TDB |
period | 1679.48279060302 4.60 | 1.6745e-05 4.585e-08 | d yr |
n | .2143517051882036 | 2.1372e-09 | deg/d |
Q | 2.818520782540061 | 1.8734e-08 | au |
|
| | Orbit Determination Parameters
Additional Information
|